Location: Henham
(51.9333°N, 0.2500°E)
Time: 12:00:32
(UTC+00:00)

STARLINK-53 - Pass Details

Date: 23 October 2019
Orbit: 550 x 552 km, 53.0° (Epoch: 21 November)

Event Time Altitude Azimuth Distance (km) Brightness Sun altitude
Rises 17:08:42 0° 267° (W) 2,721 9.4 -3.8°
Reaches altitude 10° 17:10:56 10° 269° (W) 1,828 8.0 -4.1°
Maximum altitude 17:15:06 77° 355° (N) 571 3.7 -4.7°
Drops below altitude 10° 17:19:16 10° 82° (E) 1,830 5.6 -5.4°
Enters shadow 17:19:56 - 83° (E) 2,097 5.9 -5.5°
